GFSFLT2_prec_pwat_096.txt.gz
Precipitable_Water
1.21 1.25 1.24 1.25 1.29 1.30 1.28 1.25 1.25 1.21 1.15 1.08 1.00 0.93 0.87 0.79 0.75 0.74 0.72 0.71 0.71 0.69 0.69 0.68 0.67 0.68 0.68
1.13 1.16 1.17 1.20 1.22 1.21 1.19 1.18 1.15 1.14 1.10 1.02 0.92 0.83 0.78 0.73 0.72 0.70 0.67 0.66 0.65 0.65 0.64 0.64 0.65 0.65 0.65
1.10 1.14 1.14 1.19 1.12 1.14 1.08 1.08 1.09 1.07 1.02 0.94 0.85 0.77 0.72 0.70 0.69 0.66 0.64 0.62 0.58 0.59 0.59 0.61 0.63 0.63 0.62
1.06 1.06 1.09 1.10 1.10 0.98 0.96 1.01 0.98 0.97 0.92 0.85 0.79 0.72 0.68 0.68 0.65 0.63 0.61 0.60 0.59 0.59 0.58 0.60 0.61 0.60 0.61
0.97 1.03 1.00 0.98 0.94 0.96 0.94 0.93 0.94 0.92 0.82 0.76 0.72 0.67 0.65 0.65 0.63 0.62 0.59 0.59 0.58 0.58 0.58 0.59 0.59 0.58 0.65
0.94 0.94 0.96 0.95 0.95 0.92 0.88 0.84 0.77 0.90 0.80 0.68 0.66 0.61 0.61 0.61 0.62 0.62 0.60 0.59 0.59 0.58 0.57 0.56 0.56 0.55 0.66
0.91 0.92 0.89 0.94 0.93 0.88 0.85 0.83 0.79 0.80 0.73 0.61 0.63 0.57 0.61 0.61 0.62 0.62 0.60 0.59 0.58 0.58 0.54 0.53 0.53 0.53 0.67
0.94 0.94 1.01 0.96 0.96 0.90 0.89 0.87 0.86 0.84 0.78 0.60 0.61 0.57 0.60 0.60 0.61 0.61 0.60 0.59 0.58 0.55 0.53 0.51 0.50 0.52 0.66
0.95 0.93 0.93 0.91 0.93 0.92 0.86 0.82 0.78 0.77 0.79 0.67 0.59 0.56 0.56 0.56 0.58 0.60 0.60 0.59 0.56 0.53 0.51 0.45 0.42 0.46 0.62
0.80 0.87 0.95 0.94 0.95 0.95 0.89 0.80 0.78 0.72 0.78 0.68 0.61 0.58 0.50 0.54 0.55 0.55 0.58 0.57 0.48 0.44 0.38 0.35 0.35 0.36 0.50
0.75 0.75 0.79 0.82 0.84 0.88 0.85 0.78 0.72 0.72 0.73 0.69 0.59 0.55 0.48 0.44 0.48 0.51 0.53 0.48 0.38 0.37 0.34 0.33 0.31 0.30 0.32
0.62 0.65 0.67 0.70 0.75 0.80 0.77 0.76 0.75 0.71 0.69 0.65 0.56 0.52 0.48 0.45 0.44 0.45 0.40 0.40 0.36 0.34 0.33 0.33 0.33 0.31 0.30
0.56 0.58 0.63 0.68 0.71 0.72 0.71 0.71 0.71 0.70 0.69 0.64 0.59 0.54 0.50 0.47 0.43 0.39 0.29 0.35 0.35 0.33 0.34 0.32 0.31 0.31 0.27
0.56 0.60 0.62 0.62 0.63 0.64 0.63 0.63 0.62 0.61 0.64 0.63 0.60 0.55 0.50 0.47 0.39 0.35 0.35 0.27 0.33 0.34 0.35 0.33 0.34 0.34 0.35
0.54 0.55 0.57 0.58 0.58 0.60 0.59 0.58 0.56 0.57 0.58 0.59 0.58 0.55 0.53 0.44 0.33 0.31 0.32 0.30 0.32 0.33 0.34 0.38 0.42 0.42 0.41
0.52 0.51 0.52 0.55 0.55 0.56 0.55 0.55 0.53 0.55 0.56 0.56 0.54 0.50 0.45 0.40 0.39 0.27 0.30 0.30 0.32 0.36 0.41 0.40 0.39 0.41 0.41
0.48 0.52 0.50 0.52 0.52 0.53 0.53 0.52 0.51 0.53 0.55 0.57 0.52 0.42 0.34 0.30 0.35 0.38 0.26 0.30 0.37 0.39 0.41 0.40 0.37 0.39 0.41

GFSFLT2_prec_pwat_099.txt.gz
Precipitable_Water
1.27 1.29 1.28 1.26 1.30 1.33 1.37 1.36 1.35 1.32 1.28 1.25 1.20 1.19 1.15 1.05 0.97 0.89 0.81 0.77 0.74 0.70 0.70 0.68 0.68 0.67 0.65
1.17 1.18 1.20 1.23 1.24 1.24 1.27 1.32 1.30 1.27 1.26 1.22 1.17 1.11 1.05 0.97 0.88 0.81 0.75 0.73 0.69 0.65 0.64 0.64 0.63 0.63 0.61
1.08 1.14 1.17 1.21 1.16 1.18 1.18 1.20 1.24 1.23 1.21 1.17 1.12 1.06 0.98 0.91 0.83 0.76 0.72 0.66 0.61 0.60 0.60 0.59 0.60 0.60 0.59
1.06 1.06 1.07 1.13 1.14 1.09 1.07 1.12 1.09 1.12 1.14 1.12 1.09 1.00 0.93 0.86 0.79 0.72 0.66 0.61 0.60 0.59 0.59 0.59 0.58 0.59 0.58
0.92 0.99 0.98 1.02 1.01 1.05 1.04 1.06 1.06 1.07 1.04 1.02 1.00 0.94 0.88 0.82 0.75 0.69 0.64 0.59 0.59 0.58 0.56 0.57 0.56 0.57 0.57
0.82 0.81 0.87 0.99 1.03 0.99 1.00 0.94 0.88 1.05 0.99 0.94 0.97 0.87 0.83 0.78 0.73 0.68 0.63 0.60 0.59 0.57 0.57 0.56 0.56 0.55 0.56
0.73 0.75 0.74 0.91 0.98 0.92 0.94 0.93 0.92 0.98 0.96 0.87 0.91 0.83 0.80 0.71 0.69 0.66 0.63 0.61 0.60 0.59 0.57 0.57 0.55 0.54 0.58
0.79 0.78 0.80 0.92 0.91 0.96 0.98 0.95 0.94 0.94 0.92 0.76 0.83 0.79 0.75 0.69 0.68 0.67 0.64 0.62 0.60 0.59 0.58 0.56 0.54 0.53 0.60
0.84 0.87 0.87 0.92 0.93 0.88 0.83 0.86 0.81 0.83 0.87 0.81 0.81 0.79 0.74 0.68 0.67 0.66 0.63 0.62 0.61 0.60 0.60 0.56 0.51 0.48 0.59
0.71 0.80 0.83 0.89 0.90 0.92 0.86 0.79 0.75 0.77 0.85 0.80 0.80 0.77 0.68 0.65 0.62 0.62 0.63 0.61 0.62 0.60 0.57 0.51 0.43 0.42 0.53
0.61 0.68 0.73 0.81 0.83 0.86 0.85 0.80 0.73 0.74 0.85 0.83 0.79 0.76 0.70 0.62 0.62 0.61 0.60 0.59 0.59 0.55 0.46 0.40 0.36 0.36 0.42
0.47 0.56 0.64 0.70 0.76 0.81 0.85 0.86 0.88 0.84 0.86 0.83 0.77 0.75 0.66 0.59 0.54 0.56 0.54 0.55 0.55 0.47 0.36 0.34 0.32 0.31 0.32
0.44 0.48 0.60 0.68 0.74 0.74 0.77 0.78 0.79 0.82 0.82 0.80 0.76 0.73 0.66 0.59 0.52 0.49 0.48 0.47 0.47 0.40 0.33 0.31 0.30 0.29 0.27
0.46 0.50 0.55 0.62 0.62 0.68 0.66 0.68 0.69 0.69 0.74 0.73 0.71 0.70 0.63 0.60 0.53 0.49 0.49 0.38 0.38 0.36 0.33 0.32 0.32 0.31 0.30
0.44 0.48 0.51 0.52 0.58 0.62 0.63 0.62 0.59 0.61 0.61 0.64 0.66 0.65 0.62 0.57 0.50 0.50 0.43 0.39 0.34 0.34 0.33 0.30 0.31 0.31 0.30
0.41 0.45 0.48 0.50 0.51 0.56 0.57 0.58 0.56 0.57 0.57 0.59 0.59 0.57 0.56 0.54 0.54 0.47 0.39 0.37 0.34 0.33 0.34 0.31 0.30 0.33 0.35
0.37 0.42 0.46 0.50 0.49 0.49 0.52 0.53 0.52 0.55 0.56 0.56 0.55 0.54 0.50 0.46 0.51 0.49 0.35 0.34 0.31 0.31 0.33 0.32 0.34 0.40 0.41

GFSFLT2_prec_pwat_102.txt.gz
Precipitable_Water
1.23 1.28 1.29 1.33 1.35 1.39 1.38 1.38 1.39 1.43 1.45 1.42 1.36 1.32 1.31 1.27 1.24 1.16 1.11 0.99 0.90 0.84 0.80 0.76 0.72 0.71 0.69
1.18 1.20 1.18 1.26 1.29 1.28 1.30 1.34 1.32 1.35 1.38 1.37 1.31 1.28 1.26 1.23 1.19 1.15 1.02 0.90 0.84 0.80 0.75 0.71 0.67 0.66 0.65
1.04 1.14 1.16 1.19 1.18 1.21 1.22 1.24 1.28 1.30 1.33 1.31 1.27 1.24 1.22 1.20 1.13 1.02 0.94 0.87 0.79 0.75 0.68 0.65 0.64 0.61 0.60
0.98 0.99 1.06 1.09 1.13 1.08 1.07 1.15 1.15 1.22 1.25 1.25 1.21 1.20 1.17 1.12 1.06 0.97 0.89 0.82 0.75 0.68 0.63 0.62 0.60 0.59 0.58
0.69 0.72 0.77 0.88 0.97 1.05 1.00 1.09 1.12 1.13 1.13 1.15 1.14 1.13 1.12 1.09 1.02 0.93 0.84 0.77 0.71 0.64 0.62 0.60 0.59 0.57 0.56
0.62 0.60 0.67 0.70 0.84 0.86 0.94 0.93 0.91 1.08 1.06 1.04 1.11 1.05 1.09 1.04 1.01 0.92 0.81 0.73 0.69 0.64 0.61 0.60 0.58 0.56 0.57
0.55 0.61 0.64 0.68 0.78 0.76 0.80 0.84 0.88 1.00 1.01 0.96 1.04 1.00 1.07 1.05 1.00 0.90 0.81 0.74 0.69 0.64 0.60 0.59 0.56 0.56 0.59
0.49 0.59 0.67 0.78 0.76 0.82 0.80 0.81 0.83 0.90 0.94 0.85 0.95 0.92 1.01 1.01 1.00 0.92 0.81 0.72 0.67 0.63 0.61 0.59 0.57 0.60 0.58
0.45 0.50 0.57 0.71 0.81 0.79 0.75 0.66 0.68 0.76 0.88 0.83 0.86 0.89 0.92 0.91 0.92 0.87 0.79 0.72 0.67 0.63 0.62 0.59 0.60 0.58 0.53
0.31 0.39 0.50 0.57 0.75 0.77 0.76 0.66 0.70 0.69 0.76 0.76 0.81 0.83 0.77 0.82 0.84 0.85 0.79 0.72 0.68 0.65 0.62 0.63 0.60 0.52 0.48
0.25 0.30 0.40 0.49 0.58 0.71 0.78 0.73 0.70 0.73 0.86 0.84 0.81 0.81 0.78 0.73 0.80 0.80 0.78 0.72 0.68 0.65 0.63 0.62 0.57 0.49 0.44
0.20 0.22 0.28 0.41 0.50 0.61 0.74 0.78 0.81 0.78 0.89 0.87 0.79 0.75 0.73 0.73 0.71 0.77 0.78 0.72 0.68 0.63 0.63 0.61 0.50 0.44 0.42
0.22 0.23 0.29 0.37 0.49 0.54 0.67 0.73 0.76 0.79 0.82 0.84 0.82 0.79 0.75 0.70 0.70 0.71 0.68 0.67 0.67 0.63 0.62 0.52 0.41 0.37 0.32
0.24 0.26 0.30 0.35 0.45 0.51 0.54 0.63 0.65 0.66 0.73 0.76 0.78 0.78 0.72 0.72 0.72 0.68 0.68 0.60 0.62 0.60 0.57 0.45 0.36 0.33 0.31
0.24 0.25 0.27 0.30 0.41 0.49 0.52 0.56 0.57 0.59 0.62 0.66 0.72 0.73 0.74 0.70 0.65 0.67 0.65 0.61 0.59 0.54 0.50 0.36 0.32 0.31 0.30
0.22 0.26 0.27 0.31 0.38 0.46 0.49 0.52 0.53 0.56 0.58 0.61 0.62 0.63 0.63 0.64 0.69 0.65 0.63 0.59 0.56 0.46 0.45 0.32 0.29 0.32 0.31
0.21 0.25 0.29 0.32 0.37 0.42 0.45 0.49 0.51 0.54 0.57 0.59 0.59 0.57 0.54 0.52 0.60 0.67 0.61 0.57 0.50 0.43 0.38 0.33 0.29 0.30 0.30

GFSFLT2_prec_pwat_108.txt.gz
Precipitable_Water
1.16 1.22 1.24 1.28 1.32 1.33 1.35 1.34 1.36 1.36 1.36 1.36 1.36 1.39 1.41 1.42 1.45 1.49 1.52 1.48 1.46 1.41 1.36 1.30 1.23 1.14 0.99
1.10 1.18 1.21 1.28 1.29 1.28 1.32 1.35 1.35 1.37 1.36 1.38 1.38 1.40 1.40 1.41 1.43 1.47 1.47 1.45 1.44 1.39 1.34 1.27 1.19 1.11 0.99
0.96 1.08 1.13 1.18 1.18 1.22 1.24 1.24 1.28 1.30 1.31 1.33 1.34 1.34 1.34 1.37 1.41 1.44 1.44 1.41 1.39 1.32 1.27 1.22 1.15 1.08 0.97
0.84 0.90 0.96 1.05 1.09 1.06 1.07 1.14 1.13 1.19 1.22 1.24 1.28 1.30 1.26 1.27 1.33 1.36 1.39 1.36 1.35 1.29 1.21 1.15 1.09 1.05 0.93
0.48 0.59 0.67 0.78 0.84 0.94 0.95 0.98 1.00 1.05 1.03 1.10 1.21 1.22 1.21 1.20 1.25 1.32 1.30 1.27 1.25 1.22 1.15 1.10 1.04 0.98 0.83
0.25 0.30 0.40 0.53 0.66 0.72 0.74 0.69 0.65 0.88 0.87 0.93 1.08 1.06 1.13 1.17 1.22 1.24 1.23 1.21 1.18 1.14 1.10 1.05 0.99 0.85 0.76
0.23 0.25 0.28 0.34 0.39 0.40 0.49 0.55 0.55 0.64 0.67 0.67 0.87 0.92 1.03 1.10 1.16 1.17 1.16 1.14 1.10 1.06 1.03 0.99 0.92 0.84 0.77
0.29 0.30 0.29 0.29 0.31 0.34 0.38 0.42 0.48 0.54 0.63 0.54 0.70 0.79 0.95 1.00 1.06 1.09 1.12 1.10 1.06 1.03 1.00 0.96 0.91 0.83 0.75
0.32 0.32 0.32 0.31 0.28 0.27 0.24 0.26 0.28 0.39 0.51 0.53 0.60 0.65 0.79 0.85 0.98 1.02 1.04 1.05 1.05 1.02 1.00 0.97 0.91 0.82 0.73
0.29 0.29 0.28 0.26 0.28 0.30 0.30 0.26 0.28 0.29 0.42 0.43 0.50 0.59 0.55 0.69 0.83 0.93 0.95 0.98 0.98 0.98 0.97 0.97 0.93 0.83 0.73
0.28 0.27 0.26 0.29 0.30 0.31 0.30 0.32 0.30 0.31 0.44 0.46 0.46 0.51 0.56 0.59 0.68 0.78 0.91 0.92 0.92 0.92 0.93 0.93 0.90 0.88 0.80
0.26 0.25 0.25 0.26 0.27 0.30 0.32 0.31 0.33 0.33 0.40 0.47 0.45 0.48 0.50 0.51 0.55 0.66 0.76 0.82 0.87 0.85 0.88 0.91 0.90 0.90 0.84
0.23 0.23 0.25 0.27 0.30 0.29 0.28 0.29 0.31 0.31 0.38 0.44 0.46 0.51 0.50 0.51 0.51 0.58 0.62 0.69 0.80 0.82 0.81 0.81 0.86 0.86 0.77
0.25 0.24 0.25 0.26 0.27 0.28 0.26 0.26 0.27 0.27 0.34 0.40 0.46 0.48 0.50 0.48 0.50 0.51 0.63 0.61 0.68 0.73 0.78 0.80 0.83 0.85 0.77
0.27 0.25 0.23 0.23 0.22 0.24 0.24 0.26 0.25 0.26 0.27 0.33 0.42 0.46 0.49 0.52 0.48 0.49 0.56 0.57 0.64 0.73 0.72 0.69 0.77 0.81 0.80
0.27 0.25 0.23 0.23 0.22 0.21 0.25 0.26 0.25 0.26 0.28 0.31 0.36 0.38 0.40 0.46 0.53 0.51 0.52 0.53 0.62 0.64 0.69 0.68 0.69 0.74 0.77
0.28 0.26 0.24 0.24 0.22 0.21 0.22 0.26 0.26 0.27 0.31 0.33 0.34 0.36 0.32 0.33 0.45 0.53 0.46 0.51 0.55 0.58 0.64 0.66 0.67 0.70 0.73

GFSFLT2_prec_pwat_111.txt.gz
Precipitable_Water
1.09 1.16 1.22 1.24 1.27 1.32 1.36 1.34 1.34 1.34 1.34 1.38 1.36 1.37 1.35 1.34 1.35 1.36 1.35 1.35 1.42 1.46 1.49 1.48 1.43 1.36 1.31
0.96 1.01 1.07 1.15 1.19 1.23 1.28 1.34 1.33 1.34 1.36 1.37 1.38 1.37 1.37 1.35 1.35 1.36 1.38 1.40 1.45 1.47 1.48 1.46 1.42 1.37 1.33
0.75 0.92 0.98 1.05 1.06 1.12 1.14 1.19 1.24 1.29 1.31 1.30 1.33 1.33 1.33 1.35 1.36 1.36 1.38 1.41 1.44 1.45 1.45 1.44 1.39 1.37 1.32
0.42 0.49 0.70 0.89 0.98 0.95 0.97 1.07 1.08 1.17 1.21 1.23 1.24 1.26 1.27 1.29 1.31 1.32 1.33 1.37 1.42 1.43 1.42 1.40 1.36 1.33 1.27
0.25 0.28 0.34 0.46 0.59 0.81 0.87 0.94 1.00 1.07 1.08 1.11 1.13 1.15 1.21 1.28 1.28 1.26 1.25 1.29 1.36 1.39 1.39 1.35 1.32 1.28 1.22
0.24 0.23 0.23 0.29 0.35 0.45 0.56 0.65 0.72 0.98 0.96 0.95 1.05 1.03 1.12 1.20 1.23 1.23 1.23 1.26 1.31 1.35 1.33 1.30 1.27 1.21 1.14
0.26 0.26 0.27 0.29 0.28 0.26 0.31 0.40 0.50 0.68 0.76 0.73 0.83 0.84 0.99 1.10 1.20 1.20 1.20 1.24 1.27 1.26 1.24 1.22 1.18 1.13 1.08
0.30 0.32 0.34 0.34 0.33 0.30 0.27 0.27 0.31 0.37 0.54 0.55 0.69 0.65 0.76 0.87 1.01 1.10 1.14 1.17 1.20 1.20 1.19 1.14 1.09 1.05 1.03
0.34 0.35 0.33 0.32 0.30 0.29 0.23 0.23 0.20 0.21 0.30 0.35 0.41 0.47 0.58 0.66 0.80 0.91 1.00 1.05 1.09 1.11 1.11 1.08 1.03 1.01 0.98
0.28 0.30 0.31 0.30 0.30 0.32 0.29 0.26 0.26 0.25 0.30 0.29 0.32 0.37 0.34 0.47 0.63 0.77 0.87 0.97 1.01 1.04 1.02 1.01 0.98 0.96 0.95
0.28 0.28 0.27 0.26 0.27 0.29 0.30 0.31 0.28 0.29 0.34 0.35 0.32 0.34 0.36 0.37 0.47 0.64 0.74 0.85 0.91 0.94 0.97 0.95 0.93 0.91 0.89
0.29 0.25 0.24 0.23 0.23 0.24 0.27 0.29 0.30 0.30 0.32 0.32 0.31 0.31 0.31 0.34 0.34 0.47 0.61 0.69 0.77 0.84 0.89 0.92 0.91 0.90 0.89
0.26 0.25 0.26 0.26 0.25 0.24 0.27 0.29 0.27 0.28 0.29 0.31 0.31 0.31 0.34 0.34 0.37 0.40 0.47 0.57 0.66 0.69 0.81 0.84 0.83 0.86 0.83
0.29 0.31 0.30 0.28 0.25 0.25 0.22 0.22 0.22 0.22 0.28 0.30 0.33 0.35 0.32 0.37 0.41 0.39 0.42 0.45 0.57 0.63 0.69 0.73 0.82 0.85 0.83
0.27 0.28 0.27 0.27 0.25 0.25 0.24 0.22 0.20 0.22 0.23 0.28 0.32 0.35 0.38 0.39 0.36 0.43 0.45 0.48 0.52 0.57 0.60 0.62 0.69 0.80 0.80
0.26 0.26 0.26 0.26 0.24 0.24 0.24 0.22 0.21 0.23 0.25 0.27 0.29 0.29 0.31 0.36 0.42 0.40 0.43 0.48 0.52 0.54 0.57 0.55 0.58 0.69 0.74
0.26 0.26 0.27 0.26 0.25 0.24 0.23 0.21 0.21 0.24 0.27 0.30 0.29 0.28 0.24 0.23 0.35 0.44 0.38 0.43 0.51 0.51 0.52 0.54 0.54 0.62 0.71

GFSFLT2_prec_pwat_114.txt.gz
Precipitable_Water
0.92 0.99 1.02 1.06 1.15 1.23 1.31 1.36 1.37 1.38 1.42 1.39 1.39 1.35 1.36 1.38 1.39 1.40 1.42 1.41 1.44 1.43 1.41 1.46 1.51 1.48 1.46
0.65 0.83 0.88 1.00 1.04 1.08 1.13 1.22 1.26 1.31 1.34 1.34 1.35 1.35 1.35 1.36 1.36 1.37 1.37 1.36 1.37 1.41 1.41 1.38 1.46 1.44 1.43
0.42 0.51 0.74 0.85 0.87 0.96 1.03 1.08 1.14 1.20 1.23 1.27 1.29 1.32 1.33 1.33 1.34 1.33 1.35 1.35 1.35 1.36 1.38 1.40 1.43 1.45 1.42
0.27 0.35 0.43 0.56 0.67 0.71 0.81 0.94 0.98 1.08 1.13 1.17 1.19 1.21 1.23 1.27 1.29 1.30 1.32 1.35 1.36 1.36 1.38 1.42 1.44 1.44 1.42
0.21 0.23 0.26 0.33 0.41 0.49 0.51 0.63 0.83 0.97 0.98 1.03 1.07 1.11 1.16 1.20 1.24 1.27 1.28 1.31 1.31 1.33 1.34 1.39 1.43 1.42 1.42
0.24 0.24 0.25 0.28 0.30 0.30 0.32 0.32 0.44 0.72 0.81 0.88 0.97 0.99 1.06 1.11 1.16 1.22 1.24 1.27 1.28 1.27 1.30 1.35 1.39 1.39 1.38
0.31 0.29 0.27 0.29 0.31 0.28 0.26 0.26 0.27 0.36 0.47 0.55 0.76 0.87 0.99 1.02 1.07 1.13 1.19 1.23 1.25 1.25 1.26 1.31 1.33 1.34 1.33
0.29 0.31 0.35 0.35 0.33 0.30 0.28 0.27 0.26 0.23 0.30 0.33 0.48 0.57 0.79 0.91 0.95 1.03 1.13 1.18 1.22 1.25 1.27 1.28 1.29 1.28 1.26
0.30 0.31 0.31 0.35 0.37 0.34 0.26 0.25 0.22 0.22 0.24 0.26 0.26 0.35 0.46 0.65 0.75 0.88 0.97 1.08 1.15 1.19 1.22 1.24 1.24 1.23 1.20
0.29 0.31 0.31 0.30 0.31 0.31 0.31 0.28 0.27 0.24 0.34 0.32 0.29 0.33 0.31 0.46 0.57 0.67 0.87 0.97 1.06 1.09 1.14 1.19 1.18 1.13 1.09
0.25 0.25 0.26 0.28 0.29 0.28 0.26 0.27 0.28 0.28 0.31 0.31 0.28 0.26 0.29 0.31 0.38 0.50 0.58 0.79 0.89 0.97 1.03 1.07 1.07 1.09 1.02
0.21 0.22 0.22 0.23 0.26 0.27 0.27 0.27 0.28 0.28 0.31 0.32 0.28 0.27 0.25 0.24 0.23 0.31 0.46 0.57 0.74 0.78 0.83 0.91 0.96 0.99 1.02
0.21 0.22 0.24 0.27 0.30 0.29 0.27 0.27 0.28 0.27 0.26 0.26 0.29 0.29 0.29 0.26 0.24 0.26 0.29 0.41 0.57 0.68 0.75 0.78 0.81 0.88 0.85
0.22 0.23 0.25 0.26 0.27 0.28 0.24 0.24 0.23 0.22 0.24 0.25 0.28 0.29 0.28 0.30 0.29 0.27 0.32 0.32 0.42 0.53 0.64 0.70 0.75 0.80 0.84
0.24 0.23 0.24 0.24 0.25 0.26 0.25 0.24 0.22 0.20 0.20 0.24 0.28 0.32 0.32 0.30 0.28 0.30 0.32 0.35 0.42 0.44 0.50 0.55 0.63 0.69 0.76
0.25 0.24 0.23 0.24 0.24 0.26 0.25 0.24 0.22 0.21 0.19 0.20 0.25 0.27 0.28 0.29 0.32 0.28 0.30 0.32 0.39 0.44 0.47 0.45 0.49 0.60 0.66
0.23 0.23 0.25 0.25 0.25 0.24 0.25 0.24 0.22 0.22 0.21 0.24 0.26 0.26 0.22 0.20 0.27 0.35 0.30 0.33 0.34 0.40 0.47 0.48 0.44 0.49 0.57

GFSFLT2_prec_pwat_117.txt.gz
Precipitable_Water
0.33 0.53 0.68 0.79 0.92 0.98 1.04 1.10 1.18 1.22 1.26 1.32 1.36 1.43 1.40 1.43 1.40 1.44 1.36 1.38 1.38 1.40 1.42 1.46 1.52 1.52 1.49
0.25 0.26 0.40 0.57 0.65 0.82 0.97 1.02 1.02 1.10 1.16 1.23 1.27 1.34 1.41 1.39 1.39 1.37 1.39 1.41 1.41 1.41 1.42 1.44 1.49 1.50 1.51
0.23 0.25 0.26 0.34 0.41 0.55 0.67 0.87 0.91 0.98 1.09 1.15 1.18 1.21 1.27 1.32 1.35 1.34 1.35 1.37 1.38 1.39 1.39 1.39 1.42 1.43 1.45
0.30 0.27 0.25 0.27 0.33 0.34 0.39 0.60 0.72 0.83 0.98 1.02 1.08 1.11 1.17 1.21 1.23 1.25 1.30 1.33 1.33 1.34 1.34 1.34 1.34 1.36 1.37
0.25 0.27 0.29 0.27 0.24 0.30 0.29 0.36 0.47 0.71 0.71 0.79 0.88 0.95 1.05 1.10 1.15 1.17 1.20 1.24 1.26 1.28 1.30 1.29 1.31 1.34 1.36
0.24 0.23 0.24 0.28 0.32 0.28 0.27 0.26 0.27 0.42 0.47 0.49 0.64 0.77 0.86 0.96 1.05 1.10 1.13 1.16 1.21 1.24 1.27 1.29 1.31 1.34 1.36
0.22 0.22 0.23 0.26 0.29 0.31 0.30 0.27 0.27 0.28 0.34 0.36 0.36 0.48 0.73 0.86 0.95 1.01 1.05 1.10 1.14 1.20 1.22 1.24 1.27 1.30 1.32
0.24 0.24 0.26 0.28 0.29 0.30 0.32 0.32 0.29 0.29 0.33 0.26 0.27 0.29 0.46 0.59 0.72 0.89 1.00 1.02 1.08 1.14 1.19 1.22 1.24 1.25 1.28
0.26 0.27 0.28 0.29 0.30 0.29 0.25 0.24 0.25 0.25 0.26 0.33 0.33 0.31 0.31 0.41 0.56 0.68 0.85 0.97 1.01 1.08 1.15 1.18 1.24 1.25 1.26
0.24 0.24 0.25 0.24 0.25 0.26 0.26 0.23 0.22 0.23 0.33 0.28 0.29 0.31 0.23 0.28 0.41 0.51 0.62 0.80 0.94 1.03 1.09 1.14 1.18 1.19 1.18
0.22 0.20 0.21 0.22 0.23 0.25 0.26 0.25 0.22 0.22 0.26 0.32 0.28 0.26 0.28 0.26 0.23 0.35 0.44 0.56 0.74 0.94 1.03 1.07 1.09 1.14 1.09
0.19 0.19 0.20 0.21 0.22 0.25 0.27 0.28 0.28 0.26 0.27 0.29 0.28 0.27 0.24 0.23 0.23 0.22 0.25 0.38 0.51 0.77 0.92 1.00 1.04 1.07 1.10
0.20 0.20 0.22 0.22 0.24 0.24 0.26 0.30 0.28 0.27 0.27 0.25 0.25 0.26 0.27 0.25 0.23 0.25 0.24 0.24 0.35 0.54 0.75 0.89 0.93 0.96 0.94
0.22 0.23 0.24 0.23 0.23 0.24 0.24 0.24 0.24 0.22 0.25 0.26 0.25 0.27 0.25 0.29 0.29 0.25 0.28 0.25 0.30 0.38 0.58 0.72 0.85 0.93 0.93
0.22 0.22 0.23 0.23 0.23 0.25 0.24 0.24 0.22 0.21 0.21 0.24 0.25 0.25 0.26 0.28 0.28 0.29 0.29 0.28 0.28 0.29 0.40 0.51 0.67 0.76 0.84
0.23 0.22 0.22 0.21 0.22 0.23 0.24 0.23 0.22 0.22 0.22 0.23 0.24 0.22 0.23 0.26 0.31 0.27 0.29 0.31 0.30 0.31 0.33 0.36 0.47 0.68 0.74
0.22 0.22 0.21 0.22 0.23 0.23 0.22 0.23 0.22 0.23 0.22 0.24 0.24 0.24 0.20 0.18 0.27 0.35 0.27 0.31 0.32 0.30 0.30 0.32 0.36 0.48 0.64